CAPE
0 0 0 0 0 0 0 0 0 0 0 0 0 0 0 0 0 0 0 0 0 0 0 0 0 0 0 0 0 0 3 14 0 0 0 0 0 0 1 55 120 610 485 399 652
0 0 0 0 0 0 0 0 0 0 0 0 0 0 0 0 0 0 0 0 0 0 0 0 0 0 0 0 0 0 0 0 0 0 0 0 0 0 0 535 803 717 416 331 707
0 0 0 0 0 0 0 0 0 0 0 0 0 0 0 0 0 0 0 0 0 0 0 0 0 0 0 0 0 0 0 0 0 0 0 0 0 0 0 3 535 513 355 347 653
0 0 0 0 0 0 0 0 0 0 0 0 0 0 0 0 0 0 0 0 0 0 0 0 0 0 0 0 0 0 0 0 0 0 0 0 0 0 0 0 416 470 371 371 429
0 0 0 0 0 0 0 0 0 0 0 0 0 0 0 0 0 0 0 0 0 0 0 0 0 0 0 0 0 0 0 0 0 0 0 0 0 0 0 0 457 596 449 445 451
0 0 0 0 0 0 0 0 0 0 0 0 0 0 0 0 0 0 0 0 0 0 0 0 0 0 0 0 0 0 0 0 0 0 0 0 0 0 0 0 15 756 525 496 560
0 0 0 0 0 0 0 0 0 0 0 0 0 0 0 0 0 0 0 0 0 0 0 0 0 0 0 0 0 0 0 0 0 0 0 0 0 0 0 0 41 277 610 662 547
0 0 0 0 0 0 0 0 0 0 0 0 0 0 0 0 0 0 0 0 0 0 0 0 0 0 0 0 0 0 0 0 0 0 0 0 0 0 0 10 38 86 653 813 1154
0 0 0 0 0 0 0 0 0 0 0 0 0 0 0 0 0 0 0 0 0 0 0 0 0 0 0 0 0 0 0 0 0 0 0 0 0 0 0 45 123 426 1118 1146 1272
0 0 0 0 0 0 0 0 0 0 0 0 0 0 0 0 0 0 0 0 0 0 0 0 0 0 0 0 0 0 0 0 0 0 0 0 0 0 0 19 162 489 709 916 1116
0 0 0 0 0 0 0 0 0 0 0 0 0 0 0 0 0 0 0 0 0 0 0 0 0 0 0 0 0 0 0 0 0 0 0 0 0 0 0 0 87 347 414 481 658
0 0 0 0 0 0 0 0 0 0 0 0 0 0 0 0 0 0 0 0 0 0 0 0 0 0 0 0 0 0 0 0 0 0 0 0 0 0 0 0 3 101 171 252 304
0 0 0 0 0 0 0 0 0 0 0 0 0 0 0 0 0 0 0 0 0 0 0 0 0 0 0 0 0 0 0 0 0 0 0 0 0 0 0 0 0 4 18 65 131
0 0 0 0 0 0 0 0 0 0 0 0 0 0 0 0 0 0 0 0 0 0 0 0 0 0 0 0 0 0 0 0 0 0 0 0 0 0 0 0 0 0 0 0 61
0 0 0 0 0 0 0 0 0 0 0 0 0 0 0 0 0 0 0 0 0 0 0 0 0 0 0 0 0 0 0 0 0 0 0 0 0 0 0 0 0 0 0 0 0
0 0 0 0 0 0 0 0 0 0 0 0 0 0 0 0 0 0 0 0 0 0 0 0 0 0 0 0 0 0 0 0 0 0 0 0 0 0 0 0 0 0 0 0 0
0 0 0 0 0 0 0 0 0 0 0 0 0 0 0 0 0 0 0 0 0 0 0 0 0 0 0 0 0 0 0 0 0 0 0 0 0 0 2 0 0 0 0 0 7
0 0 0 0 0 0 0 0 0 0 0 0 0 0 0 0 0 0 0 0 0 0 0 0 0 0 0 0 0 0 0 0 0 0 0 0 0 3 1 8 0 0 0 0 0
0 0 0 0 0 0 0 0 0 0 0 0 0 0 0 0 0 0 0 0 0 0 0 0 0 0 0 0 0 0 0 0 0 0 0 0 5 16 3 0 0 0 0 0 0
0 0 0 0 0 0 0 0 0 0 0 0 0 0 0 0 0 0 0 0 0 0 0 0 0 0 0 0 0 0 0 0 0 0 0 0 31 0 0 0 0 0 0 0 0
0 0 0 0 0 0 0 0 0 0 0 0 0 0 0 0 0 0 0 0 0 0 0 0 0 0 0 0 0 0 0 0 0 0 0 0 0 2 0 0 0 0 0 0 0
0 0 0 0 0 0 0 0 0 0 0 0 0 0 0 0 0 0 0 0 0 0 0 0 0 0 0 0 0 0 0 0 0 0 0 0 0 0 0 0 0 0 0 0 0
0 0 0 0 0 0 0 0 0 0 0 0 0 0 0 0 0 0 0 0 0 0 0 0 0 0 0 0 0 0 0 0 0 0 0 0 0 0 0 0 0 0 0 1 0
0 0 0 0 0 0 0 0 0 0 0 0 0 0 0 0 0 0 0 0 0 0 0 0 0 0 0 0 0 0 0 1 0 0 0 0 0 0 0 4 19 14 5 0 0
0 0 0 0 0 0 0 0 0 0 0 0 0 0 0 0 0 0 0 0 0 0 0 0 0 0 0 0 0 0 0 0 0 0 0 0 0 0 2 2 1 0 0 0 0
0 0 0 0 0 0 0 0 0 0 0 0 0 0 0 0 0 0 0 0 0 0 0 0 0 0 0 0 0 0 0 0 0 0 0 0 0 5 0 0 0 0 0 0 0
0 0 0 0 0 0 0 0 0 0 0 0 0 0 0 0 0 0 0 0 0 0 0 0 0 0 0 0 0 0 0 0 0 0 0 0 0 7 0 0 0 2 42 22 45
CIN
-0 -0 -0 -0 -0 -0 -0 -0 -0 -0 -0 -0 -0 -0 -0 -0 -0 -0 -0 -0 -0 -0 -0 -0 -0 -0 -0 -0 -0 -0 -40 -28 -0 -0 -0 -0 -0 -0 -13 -135 -117 -84 -154 -209 -190
-0 -0 -0 -0 -0 -0 -0 -0 -0 -0 -0 -0 -0 -0 -0 -0 -0 -0 -0 -0 -0 -0 -0 -0 -0 -0 -0 -0 -0 -0 -1 -0 -0 -0 -0 -0 -0 -0 -0 -35 -45 -79 -164 -204 -177
-0 -0 -0 -0 -0 -0 -0 -0 -0 -0 -0 -0 -0 -0 -0 -0 -0 -0 -0 -0 -0 -0 -0 -0 -0 -0 -0 -0 -0 -0 -0 -0 -0 -0 -0 -0 -0 -0 -0 -4 -47 -95 -163 -204 -185
-0 -0 -0 -0 -0 -0 -0 -0 -0 -0 -0 -0 -0 -0 -0 -0 -0 -0 -0 -0 -0 -0 -0 -0 -0 -0 -0 -0 -0 -0 -0 -0 -0 -0 -0 -0 -0 -0 -0 -0 -59 -115 -157 -193 -212
-0 -0 -0 -0 -0 -0 -0 -0 -0 -0 -0 -0 -0 -0 -0 -0 -0 -0 -0 -0 -0 -0 -0 -0 -0 -0 -0 -0 -0 -0 -0 -0 -0 -0 -0 -0 -0 -0 -0 -0 -36 -87 -125 -174 -183
-0 -0 -0 -0 -0 -0 -0 -0 -0 -0 -0 -0 -0 -0 -0 -0 -0 -0 -0 -0 -0 -0 -0 -0 -0 -0 -0 -0 -0 -0 -0 -0 -0 -0 -0 -0 -0 -0 -0 -0 -39 -46 -83 -111 -157
-0 -0 -0 -0 -0 -0 -0 -0 -0 -0 -0 -0 -0 -0 -0 -0 -0 -0 -0 -0 -0 -0 -0 -0 -0 -0 -0 -0 -0 -0 -0 -0 -0 -0 -0 -0 -0 -0 -0 -0 -54 -37 -14 -41 -71
-0 -0 -0 -0 -0 -0 -0 -0 -0 -0 -0 -0 -0 -0 -0 -0 -0 -0 -0 -0 -0 -0 -0 -0 -0 -0 -0 -0 -0 -0 -0 -0 -0 -0 -0 -0 -0 -0 -0 -119 -128 -65 -41 -13 -14
-0 -0 -0 -0 -0 -0 -0 -0 -0 -0 -0 -0 -0 -0 -0 -0 -0 -0 -0 -0 -0 -0 -0 -0 -0 -0 -0 -0 -0 -0 -0 -0 -0 -0 -0 -0 -0 -0 -0 -117 -134 -76 -42 -36 -29
-0 -0 -0 -0 -0 -0 -0 -0 -0 -0 -0 -0 -0 -0 -0 -0 -0 -0 -0 -0 -0 -0 -0 -0 -0 -0 -0 -0 -0 -0 -0 -0 -0 -0 -0 -0 -0 -0 -0 -211 -126 -94 -74 -59 -53
-0 -0 -0 -0 -0 -0 -0 -0 -0 -0 -0 -0 -0 -0 -0 -0 -0 -0 -0 -0 -0 -0 -0 -0 -0 -0 -0 -0 -0 -0 -0 -0 -0 -0 -0 -0 -0 -0 -0 -0 -170 -110 -143 -141 -90
-0 -0 -0 -0 -0 -0 -0 -0 -0 -0 -0 -0 -0 -0 -0 -0 -0 -0 -0 -0 -0 -0 -0 -0 -0 -0 -0 -0 -0 -0 -0 -0 -0 -0 -0 -0 -0 -0 -0 -0 -251 -195 -198 -195 -121
-0 -0 -0 -0 -0 -0 -0 -0 -0 -0 -0 -0 -0 -0 -0 -0 -0 -0 -0 -0 -0 -0 -0 -0 -0 -0 -0 -0 -0 -0 -0 -0 -0 -0 -0 -0 -0 -0 -0 -0 -0 -141 -184 -265 -212
-0 -0 -0 -0 -0 -0 -0 -0 -0 -0 -0 -0 -0 -0 -0 -0 -0 -0 -0 -0 -0 -0 -0 -0 -0 -0 -0 -0 -0 -0 -0 -0 -0 -0 -0 -0 -0 -0 -0 -0 -0 -0 -0 -0 -307
-0 -0 -0 -0 -0 -0 -0 -0 -0 -0 -0 -0 -0 -0 -0 -0 -0 -0 -0 -0 -0 -0 -0 -0 -0 -0 -0 -0 -0 -0 -0 -0 -0 -0 -0 -0 -0 -0 -0 -0 -0 -0 -0 -0 -0
-0 -0 -0 -0 -0 -0 -0 -0 -0 -0 -0 -0 -0 -0 -0 -0 -0 -0 -0 -0 -0 -0 -0 -0 -0 -0 -0 -0 -0 -0 -0 -0 -0 -0 -0 -0 -0 -0 -0 -0 -0 -0 -0 -0 -0
-0 -0 -0 -0 -0 -0 -0 -0 -0 -0 -0 -0 -0 -0 -0 -0 -0 -0 -0 -0 -0 -0 -0 -0 -0 -0 -0 -0 -0 -0 -0 -0 -0 -0 -0 -0 -0 -0 -51 -0 -0 -0 -0 -0 -261
-0 -0 -0 -0 -0 -0 -0 -0 -0 -0 -0 -0 -0 -0 -0 -0 -0 -0 -0 -0 -0 -0 -0 -0 -0 -0 -0 -0 -0 -0 -0 -0 -0 -0 -0 -0 -0 -19 -27 -141 -4 -0 -0 -0 -0
-0 -0 -0 -0 -0 -0 -0 -0 -0 -0 -0 -0 -0 -0 -0 -0 -0 -0 -0 -0 -0 -0 -0 -0 -0 -0 -0 -0 -0 -0 -0 -0 -0 -0 -0 -0 -57 -101 -127 -0 -0 -0 -0 -0 -0
-0 -0 -0 -0 -0 -0 -0 -0 -0 -0 -0 -0 -0 -0 -0 -0 -0 -0 -0 -0 -0 -0 -0 -0 -0 -0 -0 -0 -0 -0 -0 -0 -0 -0 -0 -0 -24 -21 -0 -0 -0 -0 -0 -0 -0
-0 -0 -0 -0 -0 -0 -0 -0 -0 -0 -0 -0 -0 -0 -0 -0 -0 -0 -0 -0 -0 -0 -0 -0 -0 -0 -0 -0 -0 -0 -0 -0 -0 -0 -0 -0 -0 -17 -0 -0 -0 -0 -0 -0 -0
-0 -0 -0 -0 -0 -0 -0 -0 -0 -0 -0 -0 -0 -0 -0 -0 -0 -0 -0 -0 -0 -0 -0 -0 -0 -0 -0 -0 -0 -0 -0 -0 -0 -0 -0 -0 -0 -0 -0 -0 -0 -0 -0 -0 -0
-0 -0 -0 -0 -0 -0 -0 -0 -0 -0 -0 -0 -0 -0 -0 -0 -0 -0 -0 -0 -0 -0 -0 -0 -0 -0 -0 -0 -0 -0 -0 -0 -0 -0 -0 -0 -0 -0 -0 -0 -0 -0 -0 -102 -0
-0 -0 -0 -0 -0 -0 -0 -0 -0 -0 -0 -0 -0 -0 -0 -0 -0 -0 -0 -0 -0 -0 -0 -0 -0 -0 -0 -0 -0 -0 -0 -4 -0 -0 -0 -0 -0 -0 -0 -104 -130 -131 -146 -0 -0
-0 -0 -0 -0 -0 -0 -0 -0 -0 -0 -0 -0 -0 -0 -0 -0 -0 -0 -0 -0 -0 -0 -0 -0 -0 -0 -0 -0 -0 -0 -0 -0 -0 -0 -0 -0 -0 -0 -24 -38 -40 -0 -0 -0 -0
-0 -0 -0 -0 -0 -0 -0 -0 -0 -0 -0 -0 -0 -0 -0 -0 -0 -0 -0 -0 -0 -0 -0 -0 -0 -0 -0 -0 -0 -0 -0 -0 -0 -0 -0 -0 -0 -86 -0 -0 -0 -0 -0 -0 -0
-0 -0 -0 -0 -0 -0 -0 -0 -0 -0 -0 -0 -0 -0 -0 -0 -0 -0 -0 -0 -0 -0 -0 -0 -0 -0 -0 -0 -0 -0 -0 -0 -0 -0 -0 -0 -0 -78 -0 -0 -0 -57 -168 -116 -138
Wind_Speed
20 21 21 20 18 16 14 14 15 15 16 16 16 16 16 17 18 17 18 19 18 19 16 15 16 16 18 18 18 15 10 6 8 15 18 22 22 16 25 23 19 19 24 27 29
21 21 21 20 18 16 15 15 15 16 16 16 15 15 14 14 14 17 19 20 18 18 18 18 18 17 17 15 14 15 11 7 15 19 18 19 20 16 21 24 25 24 24 27 28
22 21 21 20 19 17 16 16 15 15 16 17 17 15 14 13 13 15 18 21 19 18 19 19 17 16 16 16 16 12 12 11 13 21 20 11 18 19 20 22 20 22 23 25 25
22 22 22 21 21 18 17 16 16 15 16 17 18 17 15 15 18 14 19 19 18 19 20 18 17 16 16 15 15 17 14 14 15 15 19 14 18 21 21 21 19 21 23 23 22
23 23 22 22 21 20 18 17 17 16 16 16 18 19 18 16 14 17 19 18 17 18 20 19 17 16 16 18 18 16 14 16 16 19 12 12 20 21 22 21 21 20 21 20 20
24 24 24 23 22 21 20 19 17 16 15 16 17 17 18 14 15 16 18 19 20 20 19 18 15 13 17 16 17 16 19 15 15 17 16 15 18 20 20 23 23 19 17 18 18
25 25 25 24 24 22 21 19 17 16 15 13 16 17 17 12 14 16 17 18 19 20 18 15 13 17 19 20 17 17 18 17 17 14 15 15 16 18 18 20 22 20 17 16 15
26 26 26 25 24 23 21 19 18 16 14 13 14 17 13 13 13 15 17 18 17 15 14 15 11 11 17 19 18 19 19 19 13 14 16 17 15 17 19 20 21 23 17 16 18
27 27 26 26 25 23 21 19 19 16 14 12 14 13 12 11 15 15 16 15 14 12 13 11 20 13 17 14 17 18 16 11 8 13 14 13 14 16 17 19 19 20 21 18 16
28 28 28 27 26 24 22 19 13 16 13 11 17 10 10 11 14 14 18 17 11 11 11 12 12 12 12 9 15 22 21 11 8 13 15 16 13 14 15 18 16 16 20 19 18
29 29 29 28 26 24 20 16 16 16 7 11 9 11 14 14 14 13 13 13 12 10 9 10 11 10 9 9 18 20 19 17 14 12 16 16 11 11 12 15 16 16 17 20 18
30 30 30 29 27 24 18 17 17 20 24 23 19 18 8 11 11 11 11 10 11 9 9 9 8 7 15 17 20 22 23 21 12 12 16 13 7 7 9 12 14 16 17 18 19
31 31 30 30 27 18 19 18 20 21 19 23 13 11 5 8 6 8 11 11 7 8 7 5 5 11 16 20 11 18 9 16 16 20 18 9 2 6 8 11 14 16 17 17 18
31 31 30 30 18 21 18 20 21 19 19 15 6 5 8 6 7 10 11 11 9 7 8 6 10 15 19 9 15 16 20 21 23 25 25 22 25 5 8 10 10 14 14 14 15
32 31 30 25 24 19 20 23 22 16 19 8 7 10 11 8 11 10 10 8 5 6 14 8 12 12 13 17 17 18 24 26 27 12 10 4 12 8 11 9 12 12 13 14 14
33 31 30 19 21 21 25 25 21 15 18 6 9 7 5 6 7 10 8 8 9 11 17 5 5 15 15 19 20 22 23 20 14 3 4 5 5 3 10 9 11 9 10 11 11
35 33 29 23 16 21 23 20 13 13 9 7 6 6 4 4 2 7 6 5 7 10 8 6 6 6 9 17 22 9 17 21 20 23 10 21 12 5 2 7 7 7 9 10 11
36 34 24 18 22 24 21 15 14 14 16 11 4 5 5 2 3 5 5 5 4 6 3 14 29 3 7 9 16 17 18 17 19 24 21 17 14 6 9 9 9 8 9 11 12
35 25 23 21 15 16 16 17 13 10 23 20 9 9 2 2 1 2 0 1 1 6 2 13 14 14 9 11 13 19 19 18 21 18 15 14 14 10 9 8 6 7 10 12 13
29 25 24 17 2 10 16 19 20 23 26 19 15 14 13 15 8 3 8 9 7 11 7 11 15 12 10 10 14 15 15 19 16 16 14 17 12 6 6 5 6 8 11 11 14
23 22 15 5 7 15 19 20 23 29 17 17 19 23 25 24 25 11 10 6 13 6 9 14 14 17 8 12 13 16 12 10 12 16 17 18 13 8 8 8 10 13 13 14 17
22 19 8 11 16 17 20 19 19 26 15 18 21 25 26 28 27 22 20 13 17 3 8 12 15 16 12 23 25 13 8 12 17 18 20 19 13 8 11 12 12 13 13 15 17
24 21 21 16 21 21 24 28 30 24 24 23 22 20 27 27 26 22 19 14 15 14 14 17 16 20 22 22 20 18 14 15 18 17 13 16 14 14 13 15 12 13 15 16 19
21 21 21 22 21 27 30 31 30 17 21 27 25 26 24 25 25 23 21 15 13 12 13 17 19 18 19 20 24 23 24 15 13 17 16 11 14 25 17 16 17 18 16 19 21
18 20 21 20 20 26 26 27 27 25 14 18 25 26 26 26 24 26 23 14 12 12 15 17 24 24 26 28 28 29 29 29 29 24 26 24 26 27 19 18 18 19 22 24 26
22 22 24 28 27 27 26 24 26 28 25 23 19 23 23 26 25 26 22 22 19 15 14 14 21 21 23 25 29 31 27 29 29 29 30 30 28 12 15 18 22 24 26 29 25
23 24 25 27 28 28 26 26 29 29 32 27 23 20 18 21 24 25 24 21 18 12 14 16 20 21 24 25 31 32 28 30 31 29 26 24 14 13 17 20 22 25 27 24 25
Wind_Direction
311 310 309 307 301 283 268 258 247 239 232 226 224 223 227 232 231 192 189 179 175 174 177 191 170 185 186 176 197 201 179 179 269 313 329 348 350 319 22 77 104 99 89 105 115
311 311 310 309 304 286 274 265 252 240 231 222 215 215 216 227 197 192 186 174 150 143 170 168 166 169 173 188 192 184 175 215 324 339 316 312 23 67 25 52 54 64 82 105 116
311 310 310 308 306 290 281 272 257 245 232 219 209 203 205 208 166 155 164 161 157 154 174 189 216 208 201 219 219 195 202 250 297 352 342 24 305 18 24 43 75 85 96 110 115
311 310 309 308 307 295 286 278 266 252 235 216 201 190 191 165 117 156 106 126 139 150 159 173 188 195 211 218 246 190 240 242 278 278 320 346 43 33 22 35 83 95 103 109 113
311 310 309 308 307 298 289 283 271 262 240 212 185 172 166 143 152 127 112 116 108 118 137 154 171 192 220 256 273 260 266 287 275 346 289 337 34 39 43 38 74 94 103 112 114
310 309 309 308 307 301 292 285 272 272 261 223 129 117 163 126 68 97 111 114 131 129 144 168 155 190 239 231 249 238 279 238 198 39 111 70 51 39 52 45 37 90 104 116 122
309 308 308 307 306 301 293 283 269 275 292 343 91 158 158 147 61 85 95 111 125 133 144 150 178 223 243 257 250 257 257 201 180 93 58 31 49 53 80 36 29 27 55 116 128
307 306 306 305 304 299 293 280 266 275 318 4 80 179 126 114 76 86 121 119 128 136 170 207 195 157 212 232 246 249 234 231 94 100 52 42 54 41 52 41 26 10 42 33 42
305 304 304 303 302 297 289 273 263 298 330 21 98 101 119 28 128 123 140 135 115 132 166 153 316 178 204 184 227 245 221 315 48 43 32 46 62 59 55 45 38 34 27 18 358
304 303 302 300 300 296 288 264 339 307 350 90 182 105 134 107 123 124 157 175 108 112 91 85 81 104 135 124 15 324 336 86 52 74 37 355 75 50 64 61 46 32 28 19 6
303 302 301 298 295 294 295 306 309 308 47 109 299 73 53 132 87 116 117 114 139 89 101 122 90 107 159 124 334 303 306 315 9 39 348 318 77 68 52 63 63 49 36 34 23
303 301 301 296 291 285 304 305 318 288 274 214 195 198 75 71 64 97 102 89 93 94 121 89 122 155 356 337 327 312 276 293 323 24 356 333 84 80 61 75 77 73 58 49 36
302 301 300 296 287 298 288 315 306 285 313 286 166 160 66 66 106 101 104 123 100 91 112 108 89 27 359 313 13 333 346 330 314 293 318 27 77 43 70 61 73 77 75 59 45
300 300 300 299 293 297 297 316 320 324 318 333 79 31 133 71 38 136 111 113 66 78 39 76 37 3 336 34 343 347 306 314 300 303 316 323 319 51 118 97 80 88 66 54 48
298 296 296 295 280 290 300 306 310 329 322 43 42 34 104 82 47 102 102 121 123 64 18 92 24 30 28 340 334 323 299 295 274 214 359 181 340 11 126 115 103 89 73 67 53
296 292 294 310 296 276 273 275 301 325 321 16 20 41 72 125 45 90 76 121 9 6 338 116 351 346 338 323 328 326 306 243 210 178 352 187 332 30 152 140 117 82 62 54 38
294 287 286 291 294 291 288 303 319 321 31 343 8 59 113 51 75 72 52 57 17 17 41 125 172 20 4 332 271 49 360 337 336 345 337 334 30 57 194 149 129 89 58 45 52
294 285 290 299 280 271 290 306 301 306 313 341 40 83 41 127 111 123 65 35 130 136 17 345 298 122 34 43 355 346 347 353 339 334 343 2 357 36 61 89 87 77 55 38 37
295 298 291 282 294 289 296 284 292 314 318 328 349 334 340 101 291 176 359 94 165 181 12 343 355 35 44 357 360 344 337 337 336 342 347 351 9 43 67 66 58 45 27 17 17
298 295 288 280 289 304 290 284 288 292 300 317 318 330 319 314 320 312 333 339 334 326 357 337 322 353 353 8 355 348 349 331 337 339 339 340 356 18 35 26 12 351 346 357 4
304 293 303 328 304 290 281 285 286 286 304 308 302 298 298 303 304 298 290 306 311 327 345 319 320 315 0 343 343 345 344 357 350 341 338 332 352 24 14 1 346 344 355 356 354
299 288 294 301 289 290 283 287 289 291 320 309 300 288 292 291 298 298 317 318 327 15 338 335 329 314 307 313 325 347 352 347 329 323 320 329 329 9 350 340 342 343 344 345 346
292 283 289 287 283 282 283 280 280 285 293 300 298 299 285 285 295 297 309 327 322 315 318 318 323 317 317 312 318 324 321 328 325 327 320 312 317 339 350 348 351 344 342 346 344
292 286 288 277 281 279 282 282 285 283 289 287 294 293 292 289 285 293 293 318 319 316 321 319 307 308 306 307 315 315 316 332 325 318 318 309 318 308 328 339 344 348 354 349 347
289 281 296 284 279 287 283 278 286 291 294 297 288 286 285 290 288 287 290 302 313 314 313 311 302 299 299 297 302 305 306 307 306 312 310 313 310 312 318 327 335 339 340 338 337
284 287 287 281 283 282 278 282 279 278 289 290 292 288 284 287 288 289 295 305 288 303 309 314 308 306 301 301 299 300 303 304 302 303 302 305 307 320 332 335 332 333 332 332 337
295 295 283 276 278 280 278 281 282 282 278 287 294 292 303 300 301 297 297 303 328 307 302 305 309 306 299 307 304 300 304 304 304 306 305 309 322 332 334 335 337 337 336 339 339